Starlink 6377

operational
NORAD ID: 57341 Int'l Des: 2023-099 Owner: SPXS Country: US Constellation: starlink
LEOCIRCULAR

关于 Starlink 6377

正在加载描述...

实时位置

正在加载3D地球...

即将过境

高度历史

Altitude vs Time

uPlot chart will show altitude changes over time

两行轨道根数

1 57341U 23099P 26036.42651419 .00000372 00000-0 42633-4 0 9996
2 57341 43.0022 64.2511 0001137 260.3075 99.7638 15.02534548141260
Epoch: Feb 5, 2026 • Age: 30 hours

当前状态

高度 570.7 km
速度 7.58 km/s
星下点 -40.71°S, 29.36°W
发射日期 Jul 16, 2023
运行时间 2.5 years
类型 internet

技术详情

分类 Payload
质量 305.00 kg
干质量 290.00 kg
总质量 305.00 kg
长度 0.20 m
直径 2.80 m
跨度 9.00 m
形状 Box + pan
制造商 SPXS
平台类型 Starlink
阶段状态 In Orbit
所有者/国家 SPXS/US

大型星座

Loading constellations...